Location: Clanezzo
(45.7500°N, 9.6000°E)
Time: 03:54:23
(UTC+00:00)

ESTCUBE 1 - Pass Details

Date: 03 July 2022
Orbit: 646 x 657 km, 97.9° (Epoch: 13 August)

Event Time Altitude Azimuth Distance (km) Brightness Sun altitude
Exits shadow 20:51:32 19° 131° (SE) 1,541 ? -12.9°
Maximum altitude 20:54:21 41° 70° (ENE) 938 ? -13.2°
Drops below altitude 10° 20:58:33 10° 0° (N) 2,062 ? -13.6°
Sets 21:00:52 0° 354° (N) 2,979 ? -13.9°
